PEGASUS DEB, 39917

Orbit data source: Space-Track

PEGASUS DEB, 39917 is space debris in LEO originally from a launch on Thu, 19 May 1994 UTC launched from the Air Force Western Test Range (AFWTR). Debris objects in space refer to the collection of defunct objects orbiting the Earth. Examples of debris include non-operational satellites, rocket bodies, and fragments generated from explosions, collisions, or faulty payload assembly.

Loading next visibility...
Identifier
39917, 1994-029AFQ
Orbit
LEO
Country
Flag of USUS
Related business
Manufacturer
Unknown
Mission
Spacecraft
Bus & Motor
Unknown
Mass
Unknown
Launch date (UTC)
1994-05-19 (32 years ago)
Launch vehicle
Unknown
Launch site
Air Force Western Test Range (AFWTR)
Object type
Payload
Rocket body
Debris
Shape & HBR
Unknown shape, 0.2 m
Radar Cross Section
Small (<0.1 m²)

Expand to show TLE details & history
Last TLE update: 10 hours ago

TLE from 10 hours ago
0 PEGASUS DEB
1 39917U 94029AFQ 26122.03326168  .00004224  00000-0  10780-2 0  9995
2 39917  82.1282 346.6545 0447248 183.4751 176.3290 14.04031800102614
Epoch: 2026-05-02T00:47Z
TLE epoch observation values (Epoch: 2026-05-02T00:47:53.809Z)
Latitude
-0.00006°
Longitude
114.72331°
Altitude
1,206.858 km
Speed
7.087 km/s
True Right ascension
23h 06m 37s
True Declination
0° 00' 00"
Sunlit
Object was in daylight at epoch
Visualization orbit readout
Latitude
Unknown
Longitude
Unknown
Altitude
Unknown
Speed
Unknown
Apparent Right ascension
Unknown
Apparent Declination
Unknown
Sunlit
N/A
Visualization observer readout
Local Sidereal Time
18:21:13
Azimuth
Unknown
Elevation
Unknown
Doppler factor
Unknown
Orbital elements
Apogee altitude
1,201.485 km
Perigee altitude
552.516 km
Semi-major axis
7,255.138 km
Eccentricity
0.04472
Inclination
82.1282°
RAAN
346.6545°
Arg. of periapsis
183.4751°
True anomaly
176.63977°
Mean anomaly
176.329°
Eccentric anomaly
176.48606°
Mean motion
3.51216 °/min
Orbital period
102.5 mins
BSTAR
0.001078
Loading maneuver chart data...
Computing Atmospheric mass density...
Loading historical data...
Loading historical data...
Loading historical data...
Loading historical data...
Loading historical data...
Loading historical data...
Loading historical data...

Documentation

Showing up to 5 results
|